| time (UTC) | temp F | wind direction | speed MPH | gust MPH | rain 1hr in | rain 24hr in | rain mn in | humidity % | barometer mb |
| 20260510170436 | 63 | 260 | 9.0 | 12.0 | 0.00 | 0.00 | 0.00 | 61 | 1013.0 |
| 20260510165932 | 63 | 66 | 3.0 | 5.0 | 0.00 | 0.00 | 0.00 | 59 | 1013.0 |
| 20260510165428 | 63 | 119 | 3.0 | 5.0 | 0.00 | 0.00 | 0.00 | 62 | 1013.4 |
| 20260510164925 | 63 | 181 | 2.0 | 3.0 | 0.00 | 0.00 | 0.00 | 62 | 1013.0 |
| 20260510164422 | 63 | 15 | 6.0 | 7.0 | 0.00 | 0.00 | 0.00 | 60 | 1013.4 |
| 20260510163917 | 63 | 109 | 0.0 | 2.0 | 0.00 | 0.00 | 0.00 | 62 | 1013.4 |
| 20260510163413 | 63 | 46 | 1.0 | 2.0 | 0.00 | 0.00 | 0.00 | 63 | 1013.4 |
| 20260510162908 | 62 | 77 | 2.0 | 5.0 | 0.00 | 0.00 | 0.00 | 64 | 1013.4 |
| 20260510162406 | 62 | 185 | 6.0 | 12.0 | 0.00 | 0.00 | 0.00 | 66 | 1013.4 |
| 20260510161901 | 61 | 215 | 2.0 | 5.0 | 0.00 | 0.00 | 0.00 | 67 | 1013.4 |
| 20260510161357 | 61 | 326 | 5.0 | 5.0 | 0.00 | 0.00 | 0.00 | 66 | 1013.4 |
| 20260510160853 | 61 | 340 | 5.0 | 7.0 | 0.00 | 0.00 | 0.00 | 67 | 1013.4 |
| 20260510160350 | 61 | 198 | 3.0 | 3.0 | 0.00 | 0.00 | 0.00 | 69 | 1013.4 |
| 20260510155844 | 60 | 2 | 3.0 | 5.0 | 0.00 | 0.00 | 0.00 | 71 | 1013.4 |
| 20260510155342 | 59 | 125 | 0.0 | 2.0 | 0.00 | 0.00 | 0.00 | 72 | 1013.4 |
| 20260510154837 | 59 | 207 | 7.0 | 9.0 | 0.00 | 0.00 | 0.00 | 71 | 1013.4 |
| 20260510154333 | 60 | 204 | 3.0 | 5.0 | 0.00 | 0.00 | 0.00 | 71 | 1013.4 |
| 20260510153828 | 59 | 55 | 4.0 | 5.0 | 0.00 | 0.00 | 0.00 | 74 | 1013.4 |
| 20260510153324 | 59 | 219 | 6.0 | 9.0 | 0.00 | 0.00 | 0.00 | 76 | 1013.4 |
| 20260510152821 | 57 | 107 | 0.0 | 2.0 | 0.00 | 0.00 | 0.00 | 79 | 1013.4 |
| 20260510152318 | 57 | 227 | 3.0 | 5.0 | 0.00 | 0.00 | 0.00 | 79 | 1013.4 |
| 20260510151814 | 59 | 247 | 6.0 | 9.0 | 0.00 | 0.00 | 0.00 | 78 | 1013.4 |
| 20260510151312 | 60 | 356 | 2.0 | 3.0 | 0.00 | 0.00 | 0.00 | 80 | 1013.0 |
| 20260510150808 | 61 | 128 | 1.0 | 2.0 | 0.00 | 0.00 | 0.00 | 80 | 1012.7 |
| 20260510150304 | 61 | 60 | 2.0 | 2.0 | 0.00 | 0.00 | 0.00 | 80 | 1012.4 |
| 20260510145800 | 62 | 105 | 0.0 | 0.0 | 0.00 | 0.00 | 0.00 | 80 | 1012.4 |
| 20260510145257 | 61 | 119 | 0.0 | 0.0 | 0.00 | 0.00 | 0.00 | 82 | 1012.4 |
| 20260510144753 | 60 | 104 | 0.0 | 0.0 | 0.00 | 0.00 | 0.00 | 83 | 1012.4 |
| 20260510144250 | 60 | 99 | 0.0 | 0.0 | 0.00 | 0.00 | 0.00 | 83 | 1012.4 |
| 20260510143750 | 60 | 121 | 0.0 | 0.0 | 0.00 | 0.00 | 0.00 | 85 | 1012.0 |
| 20260510143246 | 60 | 107 | 0.0 | 0.0 | 0.00 | 0.00 | 0.00 | 86 | 1012.0 |
| 20260510142743 | 59 | 94 | 0.0 | 0.0 | 0.00 | 0.00 | 0.00 | 86 | 1012.0 |
| 20260510142240 | 59 | 130 | 0.0 | 0.0 | 0.00 | 0.00 | 0.00 | 86 | 1012.0 |
| 20260510141737 | 59 | 95 | 0.0 | 0.0 | 0.00 | 0.00 | 0.00 | 86 | 1012.0 |
| 20260510141235 | 59 | 95 | 0.0 | 0.0 | 0.00 | 0.00 | 0.00 | 86 | 1012.4 |
| 20260510140731 | 59 | 100 | 0.0 | 0.0 | 0.00 | 0.00 | 0.00 | 86 | 1012.0 |
| 20260510140226 | 59 | 116 | 0.0 | 0.0 | 0.00 | 0.00 | 0.00 | 86 | 1012.0 |
| 20260510135720 | 59 | 96 | 0.0 | 0.0 | 0.00 | 0.00 | 0.00 | 87 | 1012.0 |
| 20260510135216 | 59 | 107 | 0.0 | 0.0 | 0.00 | 0.00 | 0.00 | 86 | 1012.4 |
| 20260510134714 | 59 | 112 | 0.0 | 0.0 | 0.00 | 0.00 | 0.00 | 88 | 1012.0 |
| 20260510134211 | 58 | 93 | 0.0 | 0.0 | 0.00 | 0.00 | 0.00 | 89 | 1012.0 |
| 20260510133706 | 58 | 100 | 0.0 | 0.0 | 0.00 | 0.00 | 0.00 | 91 | 1012.4 |
| 20260510133203 | 57 | 136 | 0.0 | 0.0 | 0.00 | 0.00 | 0.00 | 91 | 1012.4 |
| 20260510132659 | 57 | 169 | 0.0 | 2.0 | 0.00 | 0.00 | 0.00 | 92 | 1011.7 |
| 20260510132156 | 57 | 181 | 4.0 | 5.0 | 0.00 | 0.00 | 0.00 | 92 | 1012.0 |
| 20260510131654 | 56 | 97 | 0.0 | 2.0 | 0.00 | 0.00 | 0.00 | 93 | 1012.0 |
| 20260510131151 | 56 | 109 | 0.0 | 0.0 | 0.00 | 0.00 | 0.00 | 93 | 1012.0 |
| 20260510130647 | 55 | 162 | 2.0 | 3.0 | 0.00 | 0.00 | 0.00 | 94 | 1011.7 |
| 20260510130145 | 55 | 146 | 2.0 | 2.0 | 0.00 | 0.00 | 0.00 | 94 | 1011.7 |
| 20260510125641 | 55 | 103 | 0.0 | 0.0 | 0.00 | 0.00 | 0.00 | 95 | 1012.0 |
| 20260510125137 | 54 | 103 | 0.0 | 0.0 | 0.00 | 0.00 | 0.00 | 95 | 1012.0 |
| 20260510124634 | 54 | 103 | 0.0 | 0.0 | 0.00 | 0.00 | 0.00 | 95 | 1012.0 |
| 20260510124131 | 54 | 113 | 0.0 | 0.0 | 0.00 | 0.00 | 0.00 | 95 | 1011.7 |
| 20260510123627 | 54 | 92 | 0.0 | 0.0 | 0.00 | 0.00 | 0.00 | 95 | 1011.7 |
| 20260510123123 | 54 | 158 | 0.0 | 2.0 | 0.00 | 0.00 | 0.00 | 95 | 1012.0 |
| 20260510122619 | 54 | 133 | 1.0 | 2.0 | 0.00 | 0.00 | 0.00 | 95 | 1012.0 |
| 20260510122115 | 54 | 107 | 0.0 | 0.0 | 0.00 | 0.00 | 0.00 | 96 | 1011.7 |
| 20260510121612 | 54 | 161 | 0.0 | 2.0 | 0.00 | 0.00 | 0.00 | 96 | 1011.7 |
| 20260510121109 | 54 | 125 | 0.0 | 0.0 | 0.00 | 0.00 | 0.00 | 96 | 1011.7 |
| 20260510120607 | 53 | 108 | 0.0 | 0.0 | 0.00 | 0.00 | 0.00 | 96 | 1011.7 |
| 20260510115559 | 53 | 106 | 0.0 | 0.0 | 0.00 | 0.00 | 0.00 | 96 | 1011.7 |
| 20260510115056 | 53 | 102 | 0.0 | 0.0 | 0.00 | 0.00 | 0.00 | 97 | 1011.4 |
| 20260510114552 | 53 | 130 | 0.0 | 0.0 | 0.00 | 0.00 | 0.00 | 96 | 1011.7 |
| 20260510114048 | 53 | 115 | 0.0 | 0.0 | 0.00 | 0.00 | 0.00 | 97 | 1011.7 |
| 20260510113543 | 53 | 100 | 0.0 | 0.0 | 0.00 | 0.00 | 0.00 | 97 | 1011.4 |
| 20260510113041 | 53 | 105 | 0.0 | 0.0 | 0.00 | 0.00 | 0.00 | 97 | 1011.4 |
| 20260510112538 | 53 | 109 | 0.0 | 0.0 | 0.00 | 0.00 | 0.00 | 97 | 1011.4 |
| 20260510112034 | 53 | 106 | 0.0 | 0.0 | 0.00 | 0.00 | 0.00 | 97 | 1011.4 |
| 20260510111531 | 53 | 100 | 1.0 | 2.0 | 0.00 | 0.00 | 0.00 | 97 | 1011.7 |
| 20260510111027 | 53 | 109 | 0.0 | 0.0 | 0.00 | 0.00 | 0.00 | 97 | 1011.4 |
| 20260510110523 | 53 | 114 | 0.0 | 0.0 | 0.00 | 0.00 | 0.00 | 97 | 1011.4 |
| 20260510110020 | 52 | 107 | 0.0 | 0.0 | 0.00 | 0.00 | 0.00 | 97 | 1011.4 |
| 20260510105514 | 52 | 107 | 0.0 | 0.0 | 0.00 | 0.00 | 0.00 | 97 | 1011.7 |
| 20260510105010 | 52 | 125 | 0.0 | 0.0 | 0.00 | 0.00 | 0.00 | 97 | 1011.4 |
| 20260510104507 | 52 | 154 | 0.0 | 0.0 | 0.00 | 0.00 | 0.00 | 97 | 1011.4 |
| 20260510104003 | 52 | 114 | 0.0 | 0.0 | 0.00 | 0.00 | 0.00 | 97 | 1011.4 |
| 20260510103501 | 52 | 122 | 0.0 | 0.0 | 0.00 | 0.00 | 0.00 | 97 | 1011.0 |
| 20260510102956 | 52 | 102 | 0.0 | 0.0 | 0.00 | 0.00 | 0.00 | 97 | 1011.0 |
| 20260510102452 | 52 | 74 | 1.0 | 2.0 | 0.00 | 0.00 | 0.00 | 97 | 1010.7 |
| 20260510101949 | 52 | 65 | 1.0 | 2.0 | 0.00 | 0.00 | 0.00 | 97 | 1010.7 |
| 20260510101447 | 52 | 95 | 0.0 | 0.0 | 0.00 | 0.00 | 0.00 | 97 | 1010.7 |
| 20260510100945 | 52 | 110 | 0.0 | 0.0 | 0.00 | 0.00 | 0.00 | 97 | 1010.7 |
| 20260510100441 | 52 | 105 | 0.0 | 0.0 | 0.00 | 0.00 | 0.00 | 97 | 1010.7 |
| 20260510095937 | 52 | 163 | 2.0 | 3.0 | 0.00 | 0.00 | 0.00 | 97 | 1010.3 |
| 20260510095432 | 52 | 103 | 0.0 | 0.0 | 0.00 | 0.00 | 0.00 | 97 | 1010.3 |
| 20260510094932 | 52 | 95 | 0.0 | 0.0 | 0.00 | 0.00 | 0.00 | 97 | 1010.0 |
| 20260510094427 | 52 | 116 | 0.0 | 0.0 | 0.00 | 0.00 | 0.00 | 97 | 1010.3 |
| 20260510093923 | 52 | 108 | 0.0 | 0.0 | 0.00 | 0.00 | 0.00 | 97 | 1010.3 |
| 20260510093418 | 52 | 115 | 0.0 | 2.0 | 0.00 | 0.00 | 0.00 | 97 | 1010.3 |
| 20260510092915 | 52 | 88 | 0.0 | 2.0 | 0.00 | 0.00 | 0.00 | 97 | 1010.0 |
| 20260510092413 | 51 | 127 | 1.0 | 2.0 | 0.00 | 0.00 | 0.00 | 97 | 1010.0 |
| 20260510091913 | 51 | 118 | 0.0 | 0.0 | 0.00 | 0.00 | 0.00 | 97 | 1010.0 |
| 20260510091410 | 51 | 106 | 0.0 | 0.0 | 0.00 | 0.00 | 0.00 | 97 | 1010.0 |
| 20260510090907 | 51 | 126 | 0.0 | 0.0 | 0.00 | 0.00 | 0.00 | 97 | 1009.7 |
| 20260510090403 | 51 | 94 | 0.0 | 0.0 | 0.00 | 0.00 | 0.00 | 97 | 1009.7 |
| 20260510085859 | 51 | 106 | 0.0 | 0.0 | 0.00 | 0.00 | 0.00 | 97 | 1009.7 |
| 20260510085354 | 51 | 125 | 0.0 | 0.0 | 0.00 | 0.00 | 0.00 | 97 | 1009.7 |
| 20260510084850 | 51 | 106 | 0.0 | 0.0 | 0.00 | 0.00 | 0.00 | 97 | 1010.0 |
| 20260510084347 | 51 | 104 | 0.0 | 0.0 | 0.00 | 0.00 | 0.00 | 97 | 1010.0 |
| 20260510083844 | 51 | 111 | 0.0 | 0.0 | 0.00 | 0.00 | 0.00 | 97 | 1009.7 |
| 20260510083340 | 51 | 75 | 0.0 | 0.0 | 0.00 | 0.00 | 0.00 | 97 | 1010.0 |
| 20260510082836 | 51 | 90 | 0.0 | 0.0 | 0.00 | 0.00 | 0.00 | 97 | 1010.0 |
| 20260510082334 | 51 | 118 | 0.0 | 0.0 | 0.00 | 0.00 | 0.00 | 97 | 1010.0 |
| 20260510081832 | 51 | 109 | 0.0 | 0.0 | 0.00 | 0.00 | 0.00 | 97 | 1009.7 |
| 20260510081328 | 51 | 113 | 0.0 | 0.0 | 0.00 | 0.00 | 0.00 | 97 | 1010.0 |
| 20260510080825 | 51 | 99 | 0.0 | 0.0 | 0.00 | 0.00 | 0.00 | 97 | 1010.0 |
| 20260510080319 | 51 | 91 | 0.0 | 0.0 | 0.00 | 0.00 | 0.00 | 97 | 1010.0 |
| 20260510075817 | 51 | 108 | 0.0 | 0.0 | 0.00 | 0.00 | 0.00 | 97 | 1010.0 |
| 20260510075314 | 51 | 102 | 0.0 | 0.0 | 0.00 | 0.00 | 0.00 | 97 | 1009.7 |
| 20260510074811 | 51 | 101 | 0.0 | 2.0 | 0.00 | 0.00 | 0.00 | 97 | 1009.7 |
| 20260510074308 | 51 | 94 | 0.0 | 0.0 | 0.00 | 0.00 | 0.00 | 97 | 1010.0 |
| 20260510073804 | 51 | 120 | 0.0 | 0.0 | 0.00 | 0.00 | 0.00 | 97 | 1010.0 |
| 20260510073300 | 51 | 93 | 0.0 | 0.0 | 0.00 | 0.00 | 0.00 | 97 | 1010.3 |
| 20260510072755 | 51 | 107 | 0.0 | 0.0 | 0.00 | 0.00 | 0.00 | 97 | 1010.3 |
| 20260510072252 | 51 | 124 | 0.0 | 0.0 | 0.00 | 0.00 | 0.00 | 97 | 1010.7 |
| 20260510071749 | 51 | 105 | 0.0 | 0.0 | 0.00 | 0.00 | 0.00 | 97 | 1010.7 |
| 20260510071245 | 52 | 104 | 0.0 | 0.0 | 0.00 | 0.00 | 0.00 | 97 | 1010.3 |
| 20260510070744 | 52 | 106 | 0.0 | 0.0 | 0.00 | 0.00 | 0.00 | 97 | 1010.7 |
| 20260510070241 | 52 | 116 | 0.0 | 0.0 | 0.00 | 0.00 | 0.00 | 97 | 1010.7 |
| 20260510065735 | 52 | 103 | 0.0 | 0.0 | 0.00 | 0.00 | 0.00 | 97 | 1010.7 |
| 20260510065232 | 52 | 98 | 0.0 | 0.0 | 0.00 | 0.00 | 0.00 | 97 | 1010.3 |
| 20260510064728 | 52 | 91 | 1.0 | 2.0 | 0.00 | 0.00 | 0.00 | 97 | 1010.7 |
| 20260510064226 | 52 | 105 | 0.0 | 0.0 | 0.00 | 0.00 | 0.00 | 97 | 1011.0 |
| 20260510063723 | 52 | 107 | 0.0 | 0.0 | 0.00 | 0.00 | 0.00 | 97 | 1010.7 |
| 20260510063219 | 52 | 135 | 0.0 | 0.0 | 0.00 | 0.00 | 0.00 | 97 | 1010.7 |
| 20260510062716 | 52 | 109 | 0.0 | 0.0 | 0.00 | 0.00 | 0.00 | 97 | 1010.7 |
| 20260510062212 | 52 | 116 | 2.0 | 2.0 | 0.00 | 0.00 | 0.00 | 97 | 1010.7 |
| 20260510061707 | 52 | 110 | 0.0 | 0.0 | 0.00 | 0.00 | 0.00 | 97 | 1010.7 |
| 20260510061204 | 52 | 101 | 0.0 | 0.0 | 0.00 | 0.00 | 0.00 | 97 | 1010.7 |
| 20260510060701 | 52 | 109 | 0.0 | 0.0 | 0.00 | 0.00 | 0.00 | 97 | 1010.7 |
| 20260510060157 | 52 | 124 | 0.0 | 0.0 | 0.00 | 0.00 | 0.00 | 97 | 1010.7 |
| 20260510055654 | 52 | 92 | 0.0 | 0.0 | 0.00 | 0.00 | 0.00 | 97 | 1010.0 |
| 20260510055152 | 52 | 108 | 0.0 | 0.0 | 0.00 | 0.00 | 0.00 | 97 | 1010.3 |
| 20260510054647 | 52 | 96 | 0.0 | 0.0 | 0.00 | 0.00 | 0.00 | 97 | 1010.0 |
| 20260510054143 | 52 | 106 | 0.0 | 0.0 | 0.00 | 0.00 | 0.00 | 97 | 1010.3 |
| 20260510053642 | 52 | 92 | 0.0 | 0.0 | 0.00 | 0.00 | 0.00 | 97 | 1010.0 |
| 20260510053139 | 52 | 109 | 0.0 | 0.0 | 0.00 | 0.00 | 0.00 | 97 | 1010.3 |
| 20260510052635 | 52 | 111 | 0.0 | 0.0 | 0.00 | 0.00 | 0.00 | 97 | 1010.3 |
| 20260510052131 | 52 | 95 | 0.0 | 0.0 | 0.00 | 0.00 | 0.00 | 97 | 1010.3 |
| 20260510051627 | 52 | 108 | 0.0 | 0.0 | 0.00 | 0.00 | 0.00 | 97 | 1010.3 |
| 20260510051124 | 52 | 108 | 0.0 | 0.0 | 0.00 | 0.00 | 0.00 | 97 | 1010.3 |
| 20260510050621 | 52 | 96 | 0.0 | 0.0 | 0.00 | 0.00 | 0.00 | 97 | 1010.3 |
| 20260510050118 | 52 | 97 | 0.0 | 0.0 | 0.00 | 0.00 | 0.00 | 97 | 1010.0 |
| 20260510045615 | 51 | 114 | 0.0 | 0.0 | 0.00 | 0.00 | 0.00 | 97 | 1010.0 |
| 20260510045111 | 51 | 102 | 0.0 | 0.0 | 0.00 | 0.00 | 0.00 | 97 | 1010.3 |
| 20260510044607 | 51 | 108 | 0.0 | 0.0 | 0.00 | 0.00 | 0.00 | 97 | 1010.3 |
| 20260510044105 | 51 | 95 | 0.0 | 0.0 | 0.00 | 0.00 | 0.00 | 97 | 1010.3 |
| 20260510043600 | 51 | 105 | 0.0 | 0.0 | 0.00 | 0.00 | 0.00 | 96 | 1010.7 |
| 20260510043057 | 51 | 109 | 0.0 | 0.0 | 0.00 | 0.00 | 0.00 | 97 | 1010.7 |
| 20260510042555 | 51 | 110 | 0.0 | 0.0 | 0.00 | 0.00 | 0.00 | 97 | 1010.3 |
| 20260510042051 | 51 | 105 | 0.0 | 0.0 | 0.00 | 0.00 | 0.00 | 96 | 1010.0 |
| 20260510041548 | 51 | 99 | 0.0 | 0.0 | 0.00 | 0.00 | 0.00 | 96 | 1010.0 |
| 20260510041046 | 51 | 104 | 0.0 | 0.0 | 0.00 | 0.00 | 0.00 | 96 | 1010.0 |
| 20260510040542 | 52 | 104 | 0.0 | 0.0 | 0.00 | 0.00 | 0.00 | 96 | 1010.0 |
| 20260510040038 | 52 | 102 | 0.0 | 0.0 | 0.00 | 0.44 | 0.44 | 96 | 1010.3 |
| 20260510035535 | 52 | 112 | 0.0 | 0.0 | 0.00 | 0.44 | 0.44 | 96 | 1010.3 |
| 20260510035034 | 52 | 103 | 0.0 | 0.0 | 0.00 | 0.44 | 0.44 | 96 | 1010.3 |
| 20260510034533 | 52 | 108 | 0.0 | 0.0 | 0.00 | 0.44 | 0.44 | 96 | 1010.0 |
| 20260510034029 | 52 | 97 | 0.0 | 0.0 | 0.00 | 0.44 | 0.44 | 96 | 1010.0 |
| 20260510033525 | 52 | 102 | 0.0 | 0.0 | 0.00 | 0.44 | 0.44 | 96 | 1010.0 |
| 20260510033023 | 51 | 110 | 0.0 | 0.0 | 0.00 | 0.44 | 0.44 | 96 | 1010.0 |
| 20260510032519 | 52 | 98 | 0.0 | 0.0 | 0.00 | 0.44 | 0.44 | 96 | 1010.0 |
| 20260510032015 | 52 | 109 | 0.0 | 0.0 | 0.00 | 0.44 | 0.44 | 96 | 1010.0 |
| 20260510031510 | 51 | 99 | 0.0 | 0.0 | 0.00 | 0.44 | 0.44 | 96 | 1010.0 |
| 20260510031006 | 52 | 105 | 0.0 | 0.0 | 0.00 | 0.44 | 0.44 | 96 | 1010.0 |
| 20260510030502 | 52 | 94 | 0.0 | 0.0 | 0.00 | 0.44 | 0.44 | 96 | 1010.0 |
| 20260510025959 | 52 | 134 | 0.0 | 0.0 | 0.00 | 0.44 | 0.44 | 96 | 1010.0 |
| 20260510025456 | 52 | 105 | 0.0 | 0.0 | 0.00 | 0.44 | 0.44 | 96 | 1010.0 |
| 20260510024954 | 52 | 102 | 0.0 | 0.0 | 0.00 | 0.44 | 0.44 | 96 | 1010.3 |
| 20260510024450 | 52 | 103 | 0.0 | 0.0 | 0.00 | 0.44 | 0.44 | 96 | 1010.3 |
| 20260510023946 | 52 | 104 | 0.0 | 0.0 | 0.00 | 0.44 | 0.44 | 96 | 1010.3 |
| 20260510023443 | 53 | 103 | 0.0 | 0.0 | 0.00 | 0.44 | 0.44 | 96 | 1010.3 |
| 20260510022939 | 53 | 102 | 0.0 | 0.0 | 0.00 | 0.44 | 0.44 | 96 | 1010.0 |
| 20260510022439 | 53 | 102 | 0.0 | 0.0 | 0.00 | 0.44 | 0.44 | 96 | 1010.0 |
| 20260510021938 | 53 | 106 | 0.0 | 0.0 | 0.00 | 0.44 | 0.44 | 96 | 1010.0 |
| 20260510021436 | 53 | 104 | 0.0 | 0.0 | 0.00 | 0.44 | 0.44 | 96 | 1010.0 |
| 20260510020932 | 53 | 104 | 0.0 | 0.0 | 0.00 | 0.44 | 0.44 | 96 | 1010.0 |
| 20260510020427 | 53 | 104 | 0.0 | 0.0 | 0.00 | 0.44 | 0.44 | 96 | 1010.3 |
| 20260510015923 | 53 | 105 | 0.0 | 0.0 | 0.00 | 0.44 | 0.44 | 96 | 1010.3 |
| 20260510015419 | 53 | 96 | 0.0 | 0.0 | 0.00 | 0.44 | 0.44 | 96 | 1010.3 |
| 20260510014914 | 53 | 103 | 0.0 | 0.0 | 0.00 | 0.44 | 0.44 | 96 | 1010.3 |
| 20260510014412 | 53 | 122 | 0.0 | 2.0 | 0.00 | 0.44 | 0.44 | 96 | 1010.3 |
| 20260510013908 | 53 | 101 | 0.0 | 0.0 | 0.00 | 0.44 | 0.44 | 96 | 1010.0 |
| 20260510013403 | 53 | 109 | 0.0 | 0.0 | 0.00 | 0.44 | 0.44 | 96 | 1010.0 |
| 20260510012858 | 53 | 95 | 1.0 | 2.0 | 0.00 | 0.44 | 0.44 | 96 | 1010.0 |
| 20260510012354 | 53 | 104 | 0.0 | 0.0 | 0.00 | 0.44 | 0.44 | 96 | 1010.0 |
| 20260510011848 | 53 | 105 | 0.0 | 0.0 | 0.00 | 0.44 | 0.44 | 96 | 1010.0 |
| 20260510011344 | 53 | 107 | 0.0 | 0.0 | 0.00 | 0.44 | 0.44 | 96 | 1010.0 |
| 20260510010840 | 53 | 107 | 0.0 | 0.0 | 0.00 | 0.44 | 0.44 | 96 | 1010.0 |
| 20260510010338 | 53 | 104 | 0.0 | 0.0 | 0.00 | 0.44 | 0.44 | 96 | 1010.0 |
| 20260510005834 | 53 | 100 | 0.0 | 0.0 | 0.00 | 0.44 | 0.44 | 96 | 1010.0 |
| 20260510005331 | 53 | 107 | 0.0 | 0.0 | 0.00 | 0.44 | 0.44 | 96 | 1010.3 |
| 20260510004828 | 53 | 101 | 0.0 | 0.0 | 0.00 | 0.44 | 0.44 | 96 | 1010.0 |
| 20260510004326 | 53 | 103 | 0.0 | 0.0 | 0.00 | 0.44 | 0.44 | 96 | 1010.0 |
| 20260510003823 | 53 | 104 | 0.0 | 0.0 | 0.00 | 0.44 | 0.44 | 96 | 1010.0 |
| 20260510003320 | 53 | 103 | 0.0 | 0.0 | 0.00 | 0.44 | 0.44 | 96 | 1010.0 |
| 20260510002819 | 53 | 104 | 0.0 | 0.0 | 0.00 | 0.44 | 0.44 | 96 | 1010.0 |
| 20260510002316 | 53 | 105 | 0.0 | 0.0 | 0.00 | 0.44 | 0.44 | 96 | 1010.0 |
| 20260510001813 | 53 | 100 | 0.0 | 0.0 | 0.00 | 0.44 | 0.44 | 96 | 1009.7 |
| 20260510001311 | 53 | 103 | 0.0 | 0.0 | 0.00 | 0.44 | 0.44 | 96 | 1009.7 |
| 20260510000806 | 53 | 106 | 0.0 | 0.0 | 0.00 | 0.44 | 0.44 | 96 | 1009.7 |
| 20260510000305 | 53 | 107 | 0.0 | 0.0 | 0.00 | 0.44 | 0.44 | 96 | 1009.3 |
| 20260509235801 | 53 | 108 | 0.0 | 0.0 | 0.00 | 0.44 | 0.44 | 96 | 1009.3 |
| 20260509235258 | 53 | 107 | 0.0 | 0.0 | 0.00 | 0.44 | 0.44 | 96 | 1009.3 |
| 20260509234753 | 53 | 102 | 0.0 | 0.0 | 0.00 | 0.44 | 0.44 | 96 | 1009.3 |
| 20260509234250 | 53 | 100 | 0.0 | 0.0 | 0.00 | 0.44 | 0.44 | 96 | 1009.3 |
| 20260509233749 | 53 | 104 | 0.0 | 0.0 | 0.00 | 0.44 | 0.44 | 96 | 1009.3 |
| 20260509233246 | 54 | 97 | 0.0 | 0.0 | 0.00 | 0.44 | 0.44 | 96 | 1009.0 |
| 20260509232742 | 54 | 100 | 0.0 | 0.0 | 0.00 | 0.44 | 0.44 | 96 | 1009.0 |
| 20260509232239 | 54 | 99 | 0.0 | 0.0 | 0.00 | 0.44 | 0.44 | 96 | 1009.0 |
| 20260509231735 | 54 | 112 | 0.0 | 0.0 | 0.00 | 0.44 | 0.44 | 96 | 1008.6 |
| 20260509231233 | 54 | 100 | 0.0 | 0.0 | 0.00 | 0.44 | 0.44 | 96 | 1009.0 |
| 20260509230730 | 54 | 96 | 0.0 | 2.0 | 0.00 | 0.44 | 0.44 | 96 | 1009.0 |
| 20260509230227 | 54 | 81 | 0.0 | 0.0 | 0.00 | 0.44 | 0.44 | 96 | 1009.0 |
| 20260509225722 | 54 | 110 | 0.0 | 0.0 | 0.00 | 0.44 | 0.44 | 97 | 1008.6 |
| 20260509225218 | 55 | 108 | 0.0 | 0.0 | 0.00 | 0.44 | 0.44 | 97 | 1008.6 |
| 20260509224714 | 55 | 109 | 0.0 | 0.0 | 0.00 | 0.44 | 0.44 | 97 | 1008.6 |
| 20260509224211 | 55 | 161 | 0.0 | 2.0 | 0.00 | 0.44 | 0.44 | 97 | 1009.0 |
| 20260509223708 | 55 | 97 | 0.0 | 0.0 | 0.00 | 0.44 | 0.44 | 97 | 1009.0 |
| 20260509223205 | 55 | 101 | 0.0 | 0.0 | 0.00 | 0.44 | 0.44 | 97 | 1009.0 |
| 20260509222702 | 55 | 124 | 0.0 | 2.0 | 0.00 | 0.44 | 0.44 | 97 | 1009.0 |
| 20260509222157 | 56 | 91 | 0.0 | 0.0 | 0.00 | 0.44 | 0.44 | 97 | 1009.0 |
| 20260509221648 | 55 | 120 | 0.0 | 0.0 | 0.00 | 0.44 | 0.44 | 98 | 1009.3 |
| 20260509221144 | 55 | 98 | 0.0 | 0.0 | 0.00 | 0.44 | 0.44 | 98 | 1009.0 |
| 20260509220640 | 55 | 102 | 0.0 | 0.0 | 0.00 | 0.44 | 0.44 | 98 | 1009.0 |
| 20260509220136 | 55 | 115 | 0.0 | 0.0 | 0.00 | 0.44 | 0.44 | 98 | 1009.0 |
| 20260509215632 | 55 | 127 | 0.0 | 2.0 | 0.00 | 0.44 | 0.44 | 98 | 1009.0 |
| 20260509215129 | 55 | 134 | 1.0 | 2.0 | 0.00 | 0.44 | 0.44 | 98 | 1009.0 |
| 20260509214626 | 55 | 104 | 0.0 | 0.0 | 0.00 | 0.44 | 0.44 | 98 | 1009.0 |
| 20260509214123 | 55 | 119 | 1.0 | 2.0 | 0.00 | 0.44 | 0.44 | 98 | 1009.3 |
| 20260509213619 | 55 | 104 | 0.0 | 0.0 | 0.00 | 0.44 | 0.44 | 98 | 1009.3 |
| 20260509213116 | 54 | 120 | 0.0 | 0.0 | 0.00 | 0.44 | 0.44 | 98 | 1009.0 |
| 20260509212613 | 54 | 109 | 0.0 | 0.0 | 0.00 | 0.44 | 0.44 | 98 | 1009.3 |
| 20260509212110 | 54 | 128 | 0.0 | 0.0 | 0.00 | 0.44 | 0.44 | 98 | 1009.3 |
| 20260509211606 | 54 | 104 | 0.0 | 0.0 | 0.00 | 0.44 | 0.44 | 98 | 1009.3 |
| 20260509211102 | 54 | 99 | 0.0 | 0.0 | 0.00 | 0.44 | 0.44 | 98 | 1009.3 |
| 20260509210559 | 54 | 137 | 0.0 | 0.0 | 0.00 | 0.44 | 0.44 | 98 | 1009.0 |
| 20260509210056 | 54 | 107 | 0.0 | 0.0 | 0.00 | 0.44 | 0.44 | 98 | 1009.3 |
| 20260509205550 | 54 | 99 | 0.0 | 0.0 | 0.00 | 0.44 | 0.44 | 98 | 1009.3 |
| 20260509205045 | 54 | 105 | 0.0 | 0.0 | 0.00 | 0.44 | 0.44 | 98 | 1009.7 |
| 20260509204542 | 54 | 119 | 1.0 | 2.0 | 0.00 | 0.44 | 0.44 | 98 | 1009.7 |
| 20260509204038 | 54 | 86 | 1.0 | 2.0 | 0.00 | 0.44 | 0.44 | 98 | 1009.7 |
| 20260509203534 | 53 | 104 | 0.0 | 0.0 | 0.00 | 0.44 | 0.44 | 98 | 1009.7 |
| 20260509203033 | 53 | 101 | 0.0 | 0.0 | 0.00 | 0.44 | 0.44 | 98 | 1009.7 |
| 20260509202527 | 53 | 97 | 0.0 | 0.0 | 0.00 | 0.44 | 0.44 | 98 | 1009.7 |
| 20260509202023 | 53 | 88 | 0.0 | 0.0 | 0.00 | 0.44 | 0.44 | 98 | 1009.7 |
| 20260509201518 | 53 | 85 | 0.0 | 0.0 | 0.00 | 0.44 | 0.44 | 98 | 1009.7 |
| 20260509201016 | 53 | 101 | 0.0 | 2.0 | 0.00 | 0.44 | 0.44 | 98 | 1010.0 |
| 20260509200515 | 52 | 86 | 0.0 | 0.0 | 0.00 | 0.44 | 0.44 | 98 | 1010.0 |
| 20260509200013 | 52 | 106 | 0.0 | 0.0 | 0.01 | 0.44 | 0.44 | 98 | 1010.0 |
| 20260509195508 | 52 | 102 | 0.0 | 0.0 | 0.01 | 0.44 | 0.44 | 98 | 1010.3 |
| 20260509195008 | 52 | 110 | 0.0 | 0.0 | 0.01 | 0.44 | 0.44 | 98 | 1010.3 |
| 20260509194504 | 52 | 101 | 0.0 | 0.0 | 0.01 | 0.44 | 0.44 | 98 | 1010.3 |
| 20260509194001 | 52 | 107 | 0.0 | 0.0 | 0.01 | 0.44 | 0.44 | 98 | 1010.7 |
| 20260509193500 | 51 | 104 | 0.0 | 0.0 | 0.01 | 0.44 | 0.44 | 98 | 1010.3 |
| 20260509192957 | 51 | 102 | 0.0 | 0.0 | 0.00 | 0.43 | 0.43 | 98 | 1010.7 |
| 20260509192454 | 51 | 103 | 0.0 | 0.0 | 0.00 | 0.43 | 0.43 | 98 | 1010.3 |
| 20260509191948 | 51 | 103 | 0.0 | 0.0 | 0.00 | 0.43 | 0.43 | 98 | 1010.7 |
| 20260509191444 | 51 | 104 | 0.0 | 0.0 | 0.00 | 0.43 | 0.43 | 98 | 1010.7 |
| 20260509190940 | 51 | 105 | 0.0 | 0.0 | 0.00 | 0.43 | 0.43 | 98 | 1010.7 |
| 20260509190437 | 51 | 101 | 0.0 | 0.0 | 0.00 | 0.43 | 0.43 | 97 | 1010.7 |
| 20260509185935 | 51 | 103 | 0.0 | 0.0 | 0.03 | 0.42 | 0.42 | 98 | 1010.7 |
| 20260509185432 | 51 | 107 | 0.0 | 0.0 | 0.03 | 0.42 | 0.42 | 97 | 1011.0 |
| 20260509184929 | 51 | 110 | 0.0 | 0.0 | 0.02 | 0.41 | 0.41 | 97 | 1011.0 |
| 20260509184427 | 51 | 102 | 0.0 | 0.0 | 0.02 | 0.41 | 0.41 | 97 | 1010.7 |
| 20260509183923 | 51 | 107 | 0.0 | 0.0 | 0.02 | 0.41 | 0.41 | 97 | 1011.0 |
| 20260509183417 | 51 | 102 | 0.0 | 0.0 | 0.01 | 0.40 | 0.40 | 97 | 1011.0 |
| 20260509182914 | 51 | 107 | 0.0 | 0.0 | 0.01 | 0.40 | 0.40 | 97 | 1011.0 |
| 20260509182411 | 51 | 103 | 0.0 | 0.0 | 0.01 | 0.40 | 0.40 | 97 | 1011.0 |
| 20260509181908 | 50 | 104 | 0.0 | 0.0 | 0.01 | 0.40 | 0.40 | 97 | 1011.0 |
| 20260509181406 | 50 | 128 | 0.0 | 0.0 | 0.01 | 0.40 | 0.40 | 97 | 1010.7 |
| 20260509180903 | 50 | 105 | 0.0 | 0.0 | 0.00 | 0.39 | 0.39 | 97 | 1011.0 |
| 20260509180358 | 50 | 102 | 0.0 | 0.0 | 0.00 | 0.39 | 0.39 | 97 | 1011.0 |
| 20260509175855 | 50 | 93 | 0.0 | 0.0 | 0.02 | 0.39 | 0.39 | 97 | 1011.0 |
| 20260509175351 | 50 | 92 | 0.0 | 0.0 | 0.02 | 0.39 | 0.39 | 97 | 1010.7 |
| 20260509174848 | 50 | 111 | 0.0 | 0.0 | 0.02 | 0.39 | 0.39 | 97 | 1011.0 |
| 20260509174344 | 50 | 104 | 0.0 | 0.0 | 0.01 | 0.38 | 0.38 | 97 | 1011.0 |
| 20260509173840 | 50 | 110 | 0.0 | 2.0 | 0.01 | 0.38 | 0.38 | 97 | 1011.0 |
| 20260509173335 | 49 | 99 | 0.0 | 0.0 | 0.01 | 0.38 | 0.38 | 97 | 1011.0 |
| 20260509172831 | 49 | 107 | 0.0 | 0.0 | 0.01 | 0.38 | 0.38 | 97 | 1011.4 |
| 20260509172328 | 49 | 103 | 0.0 | 0.0 | 0.01 | 0.38 | 0.38 | 97 | 1011.4 |
| 20260509171824 | 49 | 91 | 0.0 | 0.0 | 0.01 | 0.38 | 0.38 | 97 | 1011.4 |
| 20260509171320 | 49 | 102 | 0.0 | 0.0 | 0.01 | 0.38 | 0.38 | 97 | 1011.4 |